GFSMW_prec_cthk_273.txt.gz
RH
23 20 19 25 32 32 32 37 47 46 60 63 65 68 66 41 35 35 36 37 39 41 39 36 29 30 32 34 31 28 27 24 26 30 34 38 42 44 49 48 49 44 44
27 24 20 20 26 35 40 34 43 52 57 65 70 70 69 65 56 44 40 39 40 41 40 39 34 31 32 34 33 33 30 30 30 31 38 41 43 44 44 46 46 47 46
36 32 27 23 23 26 39 37 32 33 40 50 62 70 74 72 68 60 53 44 38 40 41 40 39 35 33 34 35 35 36 35 35 34 36 41 42 42 44 46 49 51 51
46 42 36 33 30 30 31 39 37 33 31 42 52 62 67 67 63 65 57 57 47 39 40 40 41 40 35 34 35 37 37 37 37 37 38 37 37 41 43 43 46 51 52
50 48 43 41 41 39 37 34 41 37 31 38 50 55 58 58 66 67 68 59 61 53 41 41 40 41 40 34 34 36 37 38 36 36 39 40 38 39 38 40 40 45 46
45 49 51 47 46 48 44 42 42 44 37 38 37 46 54 57 60 65 69 67 66 65 56 43 43 42 42 36 34 35 36 37 38 37 37 37 39 37 39 39 39 39 41
51 44 51 50 48 52 53 46 46 44 41 36 35 31 39 52 61 63 69 73 70 71 70 62 45 43 41 39 37 35 36 36 37 36 36 37 37 40 41 42 41 41 42
51 49 47 53 50 52 51 54 49 47 48 42 39 35 32 40 54 64 70 70 72 67 69 72 64 52 45 44 41 39 35 39 38 37 37 37 36 38 39 42 44 44 44
52 49 54 50 52 53 54 51 50 47 47 50 48 46 38 34 38 58 74 76 74 73 69 72 70 68 63 53 49 48 40 43 42 40 38 38 37 38 38 39 42 46 46
59 52 52 54 58 54 52 53 51 48 45 51 53 48 47 40 37 41 60 78 83 81 79 75 74 76 76 71 64 55 51 50 50 45 43 40 39 38 38 38 38 43 45
46 55 48 49 51 56 55 52 52 50 49 52 52 53 48 48 41 35 43 61 80 88 87 84 79 77 78 77 71 68 60 56 53 52 48 44 42 41 40 40 39 39 43
45 47 54 49 45 46 49 52 51 47 46 48 49 43 36 48 50 43 38 44 59 81 88 92 91 84 80 80 80 71 66 61 57 56 55 49 48 46 43 42 40 39 40
51 49 52 52 47 45 47 50 52 53 54 49 44 39 36 44 52 56 47 42 44 53 72 90 92 92 89 81 77 73 70 68 64 63 65 56 56 56 51 47 44 42 43
57 55 52 53 49 49 46 43 45 46 50 52 55 48 44 43 46 48 53 49 43 41 48 57 77 87 94 90 81 78 73 73 72 70 70 61 57 55 55 52 48 47 47
67 62 63 65 60 52 46 43 44 44 47 49 50 53 53 49 46 47 49 55 51 45 42 42 59 83 83 93 97 92 77 76 78 74 72 68 60 54 54 56 52 50 49
73 69 73 72 74 72 61 52 48 47 46 46 48 57 56 53 53 47 52 57 55 53 51 49 45 52 59 78 84 93 87 84 81 75 70 68 62 57 58 57 55 53 51
69 71 75 76 78 77 71 62 58 54 51 49 46 53 62 59 56 58 52 50 54 59 60 58 56 54 49 56 53 74 88 95 88 83 74 71 65 61 58 59 56 57 53
60 67 69 76 78 79 74 63 57 53 56 58 52 52 65 76 69 58 59 56 54 56 61 59 61 62 60 58 65 71 89 98 98 92 92 84 77 68 62 62 60 58 54
54 55 60 70 73 71 68 61 53 51 52 57 57 55 65 76 86 76 63 62 62 60 64 60 61 61 62 69 71 76 83 90 95 98 97 89 91 75 75 70 62 63 62
53 52 58 61 65 63 64 59 56 52 48 52 58 63 61 69 79 79 79 67 65 67 67 64 61 60 63 79 77 76 96 97 97 84 84 97 95 89 84 74 67 70 64
50 50 53 55 58 61 65 57 53 52 48 46 51 56 65 65 67 71 72 77 70 64 69 68 65 66 68 73 90 81 79 75 94 94 88 88 97 99 91 82 77 79 74
53 55 53 53 52 54 55 53 52 49 47 46 46 47 50 58 64 66 66 64 69 78 69 66 70 66 72 78 81 86 90 83 87 87 92 98 93 90 96 91 86 90 91
51 53 53 52 53 51 50 48 47 46 40 39 40 42 43 45 51 55 61 60 56 61 71 72 67 65 69 71 86 90 85 87 81 89 90 94 98 93 92 98 97 94 94
48 50 54 56 52 50 48 43 38 33 34 33 32 34 34 36 40 46 50 56 61 57 57 59 72 69 66 68 76 78 84 83 77 83 88 85 95 97 97 97 89 91 89
46 45 44 47 49 46 39 33 30 30 32 33 32 30 29 33 33 35 40 44 53 62 62 58 59 65 72 74 69 70 70 73 69 68 74 83 89 89 93 92 91 91 86
45 43 42 40 37 38 36 33 32 33 34 35 36 34 32 30 32 31 33 37 41 46 54 59 57 60 59 64 67 63 65 64 64 63 63 73 80 78 80 83 91 85 82

GFSMW_prec_cthk_276.txt.gz
RH
26 23 20 19 26 30 28 29 42 55 61 58 68 79 81 79 65 49 47 47 44 42 42 41 41 38 33 32 33 32 28 29 26 27 30 34 37 42 45 46 49 48 46
25 27 25 21 21 25 32 31 36 53 58 63 59 68 79 81 81 59 48 49 51 48 42 41 41 41 39 35 32 33 34 33 31 32 31 35 35 41 44 47 46 45 46
31 28 29 29 25 24 26 32 32 42 55 56 65 63 76 83 80 76 57 44 45 48 49 44 42 40 41 40 36 34 34 35 35 33 34 35 36 40 43 44 47 50 49
37 35 31 32 34 30 31 32 37 33 39 49 51 57 65 75 79 81 75 67 57 55 55 53 48 44 41 41 41 39 37 34 34 36 38 37 35 39 42 42 45 47 51
44 37 38 36 36 38 35 37 37 40 38 42 52 54 61 67 74 79 83 79 70 66 64 64 56 50 46 41 42 42 38 38 36 34 39 40 44 39 38 41 41 43 45
51 47 42 42 39 39 43 40 42 40 41 43 48 52 58 62 70 75 80 83 81 76 72 67 64 59 52 45 41 42 42 40 39 38 39 39 40 44 40 40 44 41 40
56 49 47 44 43 41 43 46 45 46 44 43 47 50 53 53 59 70 75 74 74 73 76 78 74 68 60 51 46 43 44 41 41 41 40 41 40 41 43 45 43 45 45
61 56 52 50 50 44 43 47 48 47 47 48 47 52 53 50 51 54 59 68 71 68 73 79 80 77 77 66 53 47 45 47 42 43 42 41 41 42 41 43 47 47 46
58 58 55 53 54 51 45 44 48 49 50 50 51 50 51 51 49 47 45 50 59 63 69 76 81 81 82 79 71 58 49 50 48 45 46 44 43 42 42 44 45 46 46
53 49 50 56 55 54 53 46 43 47 49 54 55 53 51 52 51 47 43 38 41 51 67 73 83 85 82 83 81 74 65 58 53 50 49 46 45 47 44 43 44 46 45
50 47 45 46 49 48 50 49 47 43 46 48 51 52 53 52 51 49 44 38 37 42 54 71 78 87 87 88 87 82 76 72 67 61 56 50 49 53 51 47 44 44 46
54 54 52 46 45 45 44 42 40 45 41 41 45 52 53 54 56 55 50 44 39 42 47 61 70 82 92 92 91 88 81 78 74 70 68 62 56 56 60 58 52 46 45
57 61 57 53 49 44 42 41 37 35 35 37 43 46 50 51 52 47 48 52 44 38 41 48 57 70 80 96 91 87 88 91 85 80 76 70 68 63 61 62 59 58 53
64 64 59 58 52 49 46 43 38 37 35 35 36 41 44 48 47 47 47 51 53 45 38 42 43 53 65 73 80 82 94 91 92 88 85 75 72 69 67 65 60 60 62
69 69 65 60 59 57 55 51 45 41 36 35 36 39 42 46 46 47 49 53 58 54 48 43 43 44 51 58 62 67 75 82 92 98 97 86 73 72 69 71 70 65 65
55 59 65 67 66 66 65 64 60 51 43 38 37 37 36 38 46 47 46 49 51 58 56 43 41 48 55 52 51 56 62 68 77 85 88 93 76 72 75 77 78 73 69
52 53 55 57 61 63 63 65 61 53 51 47 41 42 39 38 41 47 48 45 48 51 49 44 44 51 55 51 48 50 50 54 66 74 70 78 74 82 80 80 83 85 76
47 50 52 51 54 57 60 61 60 54 48 45 45 48 49 46 42 45 50 55 54 59 58 53 51 51 56 56 48 48 50 51 50 51 57 70 70 84 80 80 79 86 84
44 46 48 50 52 52 51 56 58 51 48 45 44 45 48 55 56 53 51 52 61 66 67 66 61 60 57 54 52 46 50 48 49 53 60 65 65 79 89 89 90 88 85
39 44 47 49 50 49 46 46 52 56 49 46 44 44 42 47 50 54 58 60 61 66 72 70 70 70 62 61 56 54 53 48 48 52 57 55 59 65 85 86 79 98 84
47 45 49 51 48 47 47 47 45 46 49 47 42 39 39 39 43 45 51 57 62 66 68 79 77 74 70 67 68 60 54 48 48 52 57 58 58 64 80 84 84 86 99
45 46 47 48 49 50 48 45 44 42 38 36 37 36 33 32 32 38 41 48 54 58 64 63 69 81 74 71 68 66 63 58 53 52 56 60 72 65 69 74 82 95 89
46 47 44 43 43 44 46 45 41 36 32 30 30 33 34 31 32 32 35 36 44 51 56 62 62 62 74 76 72 70 65 64 60 57 55 58 62 65 71 72 86 98 98
51 49 47 44 41 39 35 32 32 33 32 33 31 29 29 34 36 32 32 35 38 44 48 52 61 58 56 63 70 77 71 63 65 58 57 55 63 80 76 81 77 80 86
53 52 47 41 40 38 36 34 35 34 37 37 37 37 38 36 37 37 34 34 37 40 45 48 47 56 56 55 61 68 72 70 64 61 61 60 64 79 84 85 78 75 80
59 51 44 40 38 36 33 32 32 36 37 39 42 43 45 45 41 38 36 35 34 36 38 43 48 45 50 53 54 56 58 62 62 65 64 59 61 68 73 76 78 75 75

GFSMW_prec_cthk_279.txt.gz
RH
21 19 18 18 24 32 26 26 30 38 54 60 66 68 72 76 82 69 64 57 57 54 47 44 40 39 42 42 39 38 35 31 30 30 27 30 31 33 38 41 43 48 47
20 17 17 16 20 20 29 32 29 32 42 57 62 64 69 74 86 88 75 68 59 58 56 50 46 41 40 42 42 41 39 38 35 33 35 33 33 34 38 41 44 45 45
31 26 22 21 19 20 22 27 35 32 34 42 59 62 68 73 79 88 91 74 67 57 59 56 53 49 42 42 42 42 42 40 38 37 38 40 35 39 36 40 44 48 48
32 32 32 28 24 23 25 26 31 34 36 36 41 53 64 75 79 81 94 90 77 64 56 59 58 56 51 46 43 42 43 43 41 38 37 40 40 39 38 37 41 47 49
34 33 32 32 32 28 26 27 30 35 35 39 40 42 48 65 79 80 82 89 96 77 68 59 56 57 56 53 47 44 43 44 43 42 41 38 39 42 42 42 41 45 46
37 41 37 34 34 36 33 28 29 34 38 38 42 41 44 49 64 81 80 79 90 94 88 79 70 62 59 56 53 50 46 42 44 43 44 42 39 41 45 48 44 42 43
43 43 43 41 40 37 40 37 32 31 37 42 42 43 49 50 53 63 74 80 82 90 86 93 83 78 74 72 68 58 54 48 42 44 43 43 41 42 45 47 51 49 45
45 50 51 48 47 45 42 41 41 35 34 44 46 45 44 54 57 56 64 64 68 87 96 86 84 81 81 78 77 76 64 58 51 44 42 42 43 42 42 45 50 52 50
54 56 56 47 48 45 43 44 40 43 38 36 47 48 46 44 51 58 55 57 60 64 74 89 91 84 83 82 84 82 80 72 61 54 45 42 42 44 43 43 47 49 49
54 56 56 53 46 45 41 44 42 41 42 42 38 48 48 46 45 49 57 55 58 62 63 68 78 80 84 82 92 87 90 87 79 66 60 50 45 44 44 44 44 48 48
44 54 52 52 48 46 42 40 41 37 37 43 44 39 46 48 46 48 45 50 55 55 54 59 63 68 72 79 86 86 88 94 90 82 72 64 55 53 49 48 48 47 48
46 46 51 52 52 47 44 41 38 40 36 32 36 45 39 43 48 48 48 45 45 52 54 49 52 63 66 66 80 87 89 94 91 88 87 78 74 68 58 55 53 52 52
57 59 55 56 54 53 52 49 46 42 40 38 34 31 35 37 40 49 48 48 47 44 51 51 47 51 54 60 63 77 87 90 89 90 96 92 87 80 75 68 63 60 59
52 58 62 64 61 59 60 57 52 49 45 40 36 35 35 32 31 36 48 53 50 50 49 50 51 49 49 51 51 54 67 77 87 92 94 93 97 94 83 79 75 75 74
48 50 53 59 60 61 63 60 57 53 47 44 41 36 33 32 33 32 33 47 52 53 52 49 50 51 53 49 48 49 52 60 68 81 83 83 91 93 88 94 89 84 83
36 43 46 48 49 49 53 58 57 53 52 48 47 43 36 35 33 34 34 37 43 50 53 55 54 56 55 48 48 46 46 50 55 60 67 72 73 75 84 91 89 87 93
36 37 38 39 40 44 45 46 47 49 50 47 46 45 43 39 37 36 34 36 42 47 50 56 56 55 53 50 46 46 48 50 53 54 55 62 68 70 72 75 82 85 91
40 36 34 35 36 37 38 40 43 42 46 47 45 45 43 40 40 40 37 37 39 42 47 51 55 56 56 52 51 49 50 48 49 52 51 51 56 61 69 72 80 71 77
40 35 36 40 39 40 40 38 38 40 40 42 44 43 39 37 35 38 43 39 37 38 41 44 52 55 56 58 55 53 55 59 56 51 50 49 50 56 65 69 71 67 67
44 40 39 42 40 41 42 42 39 38 39 39 38 40 39 35 33 32 34 39 39 43 42 43 45 43 51 58 61 59 57 56 63 61 52 51 51 52 54 50 55 59 53
50 45 41 39 38 37 35 35 38 39 36 32 31 32 34 34 34 32 30 31 35 35 38 43 43 46 45 50 64 68 65 60 62 62 61 57 56 57 55 52 43 43 45
57 54 51 44 42 39 35 32 30 27 25 28 28 29 30 29 30 32 30 28 28 34 35 36 42 46 51 57 54 64 70 69 63 63 67 60 59 58 61 59 54 51 46
59 56 54 48 45 40 36 32 29 28 27 29 29 32 30 30 31 33 34 33 32 30 34 35 38 44 47 54 60 58 63 65 67 63 58 61 58 63 63 64 62 57 55
64 66 55 50 46 40 35 32 31 29 28 26 30 32 33 38 38 37 37 38 40 37 36 38 38 41 43 44 50 54 58 60 60 62 71 63 63 63 67 71 67 66 59
75 73 62 54 45 37 31 28 28 27 25 24 23 22 23 27 30 34 38 40 39 39 37 37 38 41 43 44 45 49 52 56 59 60 61 70 73 68 69 74 76 75 68
77 72 64 52 41 29 29 31 29 27 24 21 20 21 21 20 22 25 28 30 31 35 36 36 36 36 39 43 47 45 44 48 53 55 59 62 68 74 76 78 75 76 77

GFSMW_prec_cthk_285.txt.gz
RH
17 19 21 24 20 19 16 13 14 20 29 31 34 36 41 51 61 73 88 98 93 84 67 60 60 54 46 42 42 45 42 45 45 40 38 39 38 35 37 41 47 49 47
26 22 21 19 20 22 22 19 17 15 17 24 33 36 39 40 53 55 64 75 83 94 79 59 59 63 60 54 46 47 47 48 47 46 45 42 40 39 40 41 43 45 51
27 28 23 23 24 21 22 22 22 21 18 18 22 32 38 41 41 45 55 66 70 85 99 83 64 62 67 63 59 52 48 48 51 52 47 45 43 43 44 43 46 46 47
28 30 31 29 27 24 21 23 23 24 23 20 20 23 31 42 41 40 39 51 55 72 84 98 84 74 70 72 66 64 57 53 46 52 53 48 46 49 52 51 50 49 50
31 29 34 33 33 31 25 24 24 23 25 25 24 22 26 30 42 46 43 35 42 55 79 93 89 93 79 83 77 71 66 61 56 48 49 53 50 46 48 48 61 59 54
28 29 29 41 40 34 32 28 26 26 26 24 25 27 25 28 31 40 46 46 37 37 52 73 88 86 94 91 95 80 74 72 67 62 58 52 52 53 51 49 47 44 54
25 28 29 34 44 41 38 31 29 28 29 27 26 27 28 28 33 37 40 45 49 44 38 46 65 84 89 98 98 96 91 84 80 73 70 67 60 54 52 54 53 53 52
29 29 36 44 47 47 40 39 36 33 33 32 28 28 28 30 31 35 39 40 41 48 50 42 49 64 78 81 82 86 97 99 89 83 78 76 72 69 63 54 53 55 53
34 35 38 43 46 48 44 44 47 41 39 38 33 32 30 31 32 30 37 40 39 37 43 50 49 52 69 70 74 82 94 98 92 88 85 85 80 76 74 71 63 56 52
36 35 38 43 42 44 45 48 52 49 45 41 37 35 35 34 32 33 31 34 36 37 37 41 47 54 57 62 75 77 92 96 92 92 88 85 85 78 79 82 81 72 62
35 35 38 42 45 45 46 47 45 48 46 46 40 38 36 38 37 34 33 32 31 34 37 39 44 47 53 56 61 73 82 88 94 95 95 88 84 85 82 77 76 81 79
35 36 37 40 42 44 46 47 44 44 41 43 43 40 39 37 36 37 36 35 34 31 34 39 38 46 51 55 58 57 70 79 87 88 97 97 90 87 86 80 79 78 86
36 36 36 38 39 41 42 41 39 40 36 35 38 39 39 40 38 37 35 36 34 37 33 34 38 45 49 51 54 59 60 65 70 78 84 82 90 98 95 94 87 85 84
37 35 36 38 39 39 36 33 34 36 33 31 30 30 31 35 37 36 35 34 35 34 35 37 35 39 48 49 51 51 56 58 58 71 73 79 81 86 91 97 94 89 94
42 44 38 40 42 41 40 34 31 30 27 26 28 28 26 28 30 34 36 37 36 35 34 33 34 33 37 44 51 52 52 52 53 56 64 76 76 86 86 83 79 84 83
46 46 46 43 44 44 43 40 35 36 30 27 27 26 24 23 25 27 31 32 33 33 34 35 34 35 33 35 33 45 53 54 55 54 51 55 65 76 84 87 86 90 81
48 49 51 52 47 46 46 42 38 37 33 29 29 29 26 22 23 24 25 28 32 34 31 32 32 32 33 33 29 30 33 43 52 56 55 52 55 59 62 68 78 74 79
54 53 57 56 51 48 44 45 40 36 33 30 29 28 21 21 22 23 26 26 28 32 34 35 37 36 32 29 24 27 31 33 39 48 55 55 52 53 54 54 56 65 65
57 56 59 62 61 58 52 47 44 40 38 32 30 23 22 22 22 23 24 24 26 28 31 36 41 40 39 36 29 24 29 31 38 38 39 50 55 54 53 50 49 49 50
60 61 64 67 67 59 64 57 50 47 43 38 28 27 27 27 27 26 25 25 27 27 29 33 38 39 40 39 38 33 29 31 32 30 37 39 44 47 54 53 51 49 47
58 62 66 72 71 70 63 61 59 54 48 36 33 31 30 27 24 22 21 20 22 23 24 28 30 35 41 41 39 37 39 39 34 36 33 35 36 38 44 50 54 52 49
50 53 56 64 69 75 78 62 63 56 45 40 37 32 26 25 25 22 19 19 18 19 21 20 19 21 27 35 40 39 37 38 39 40 40 35 34 35 36 42 48 54 57
46 50 52 56 62 80 86 66 68 60 52 45 37 29 26 26 25 23 24 26 25 26 27 25 22 19 20 20 26 35 39 37 35 38 39 40 38 35 36 38 42 48 57
49 55 56 56 66 83 85 72 71 68 55 43 39 30 26 24 24 29 30 29 27 27 27 28 27 24 19 20 22 24 29 34 36 35 35 35 37 41 39 37 38 43 49
50 56 57 62 68 84 85 73 78 73 57 50 45 39 28 27 27 26 28 31 31 31 29 26 25 26 25 21 24 26 26 27 33 34 34 35 38 41 41 41 42 42 49
56 58 62 71 78 79 81 87 82 74 58 55 50 44 40 36 33 32 32 34 33 29 26 25 24 24 26 28 25 27 29 27 29 32 34 36 36 40 44 45 44 48 49

GFSMW_prec_cthk_291.txt.gz
RH
19 20 20 20 18 16 14 13 12 10 8 8 8 9 8 13 22 31 37 39 41 49 65 82 87 91 92 78 61 56 67 52 45 45 41 37 37 42 41 37 34 32 33
19 19 20 22 21 20 18 16 15 14 12 11 10 10 11 12 13 16 25 34 35 38 44 63 69 82 92 89 82 77 65 69 60 53 49 42 39 35 36 41 36 32 33
20 19 19 19 23 24 24 23 22 18 16 15 12 10 10 10 11 12 13 18 27 33 35 42 55 66 73 69 77 90 79 76 75 74 59 53 43 42 38 36 36 33 36
23 21 20 20 22 25 25 24 24 25 20 17 14 13 12 13 15 14 15 15 17 20 32 36 38 46 59 79 84 81 78 88 86 84 85 65 52 47 42 37 34 39 39
23 23 21 22 25 27 26 25 23 27 22 19 16 15 14 14 14 14 13 14 16 18 18 27 37 40 44 54 65 72 83 82 88 87 95 93 77 66 53 45 45 47 44
24 21 24 24 26 26 24 23 24 26 23 21 19 17 16 15 14 14 15 14 14 14 19 18 22 34 42 45 54 63 76 81 91 98 91 97 98 89 81 68 51 46 50
25 25 26 24 25 25 22 23 24 24 23 21 21 22 21 18 18 16 17 16 16 15 15 21 21 22 32 42 47 52 58 64 78 91 90 84 92 98 93 92 79 68 50
28 28 28 29 27 25 26 25 24 23 23 24 24 24 24 22 21 20 20 19 19 19 18 19 24 22 24 32 39 44 54 60 67 72 75 76 85 91 93 92 97 92 73
29 29 28 29 29 30 29 28 27 25 24 21 19 19 20 21 21 20 20 20 21 22 21 21 22 23 26 31 31 36 45 51 55 71 67 66 66 75 85 88 94 93 99
29 28 28 28 28 31 31 32 30 29 26 24 21 18 16 16 16 18 19 20 21 22 25 26 22 22 21 28 26 28 32 39 48 60 60 70 71 66 74 67 82 86 94
29 29 30 29 30 30 32 34 32 31 27 23 21 18 16 16 14 14 15 16 16 19 23 27 27 23 21 20 22 25 28 32 36 42 50 64 73 68 70 72 72 77 80
30 31 32 30 31 32 33 33 32 31 31 27 23 20 18 17 16 14 13 12 14 17 19 19 24 26 25 22 21 22 22 23 31 36 41 48 56 67 76 80 77 75 84
29 29 29 30 31 32 33 33 34 34 34 31 28 24 21 21 19 17 16 14 11 13 15 16 17 23 25 24 24 21 19 22 22 26 37 44 48 51 57 70 73 79 74
26 26 28 30 32 33 33 35 36 36 35 36 33 28 23 23 22 21 19 17 15 14 13 13 14 19 22 25 24 23 21 18 19 23 28 33 40 50 53 58 65 70 69
26 27 31 34 34 34 35 36 36 36 37 34 30 28 25 24 24 23 19 20 18 15 13 14 14 16 20 23 26 24 22 23 21 19 21 26 31 35 41 50 54 60 54
28 32 34 37 37 37 37 38 39 38 38 36 37 36 29 28 26 24 21 22 23 22 17 14 15 16 18 19 24 26 22 22 24 24 21 20 21 24 27 30 36 47 51
35 38 40 41 40 40 41 42 43 44 45 46 42 43 39 36 31 28 24 27 28 26 22 18 16 19 20 19 19 20 22 21 22 23 24 24 22 19 19 20 24 30 36
39 40 41 43 45 45 46 46 46 47 50 53 50 50 48 46 39 34 30 32 32 29 22 19 19 18 15 14 13 16 17 16 14 16 21 23 26 25 22 20 20 21 25
41 42 44 44 44 45 45 43 47 50 51 54 51 65 59 57 50 42 35 36 34 30 25 20 20 19 17 14 11 12 12 12 9 9 12 16 22 25 24 21 21 21 22
38 37 36 38 39 40 40 40 42 43 48 56 53 58 64 65 62 60 44 38 35 32 26 21 23 23 21 19 16 14 13 11 11 13 14 13 15 19 24 25 22 21 23
35 35 35 36 37 38 39 38 39 42 44 48 56 60 62 70 70 68 62 44 41 34 28 25 24 21 21 21 20 19 17 14 12 12 14 16 14 12 14 19 23 24 22
41 42 41 40 41 42 43 41 40 45 48 52 63 64 73 90 83 74 67 50 47 37 30 29 23 22 22 22 22 23 21 18 15 12 13 14 16 15 13 13 16 23 26
42 42 43 42 43 46 45 44 43 46 50 55 70 80 77 78 87 78 65 55 51 48 40 31 25 24 25 25 27 27 22 19 19 15 13 13 13 15 16 16 17 22 27
45 47 49 49 49 51 51 52 51 58 60 71 77 86 81 83 90 80 73 62 60 54 46 41 36 32 30 30 30 27 25 25 24 22 21 18 18 17 16 20 24 24 25
36 38 42 45 50 53 54 55 60 72 71 77 88 87 88 97 93 83 77 72 65 60 49 42 39 35 32 31 29 30 29 28 28 25 26 24 22 21 21 19 25 28 29
31 26 25 28 33 39 47 55 61 85 98 96 81 92 96 97 96 89 82 77 70 66 62 52 46 41 38 36 35 35 35 35 34 32 30 26 25 26 24 22 25 32 35